Mountain Home, AR

12:36 AM CST on December 06, 2019 (GMT -0600)
Baxter County Regional

Weather History for KBPK - October, 2019

Change the Weather History Date:

Friday, October 25, 2019

  Actual Average (WUND) Record (WUND)
Temperature  
Mean Temperature 48 °F -  
Max Temperature 50 °F - - (-1)
Min Temperature 46 °F - - (-1)
Degree Days  
Heating Degree Days 17    
Moisture  
Dew Point 46 °F    
Average Humidity 94    
Maximum Humidity 100    
Minimum Humidity 83    
Precipitation  
Precipitation 0.02 in - - ()
Sea Level Pressure  
Sea Level Pressure 30.17 in    
Wind  
Wind Speed 6 mph (ENE)    
Max Wind Speed 13 mph    
Max Gust Speed 21 mph    
Visibility 10 miles    
Events Rain    
Averages and records for this station are not official NWS values.
T = Trace of Precipitation, MM = Missing Value Source: NWS Daily Summary

Daily Weather History Graph

Daily Weather History Graph

Search for Another Location

Airport or City:

Astronomy

Oct. 25, 2019 Rise Set
Actual Time 7:25 AM CDT 6:21 PM CDT
Civil Twilight 6:59 AM CDT 6:47 PM CDT
Nautical Twilight 6:29 AM CDT 7:17 PM CDT
Astronomical Twilight 5:59 AM CDT 7:47 PM CDT
Moon 4:17 AM CDT (10/25) 5:16 PM CDT (10/25)
Length of Visible Light 11h 47m
Length of Day
10h 55m
Waning Crescent, 9% of the Moon is Illuminated
Oct 25
Waning Crescent
Oct 27
New
Nov 4
First Quarter
Nov 12
Full
Nov 19
Last Quarter

Hourly Weather History & Observations

Time (CDT) Temp. Windchill Dew Point Humidity Pressure Visibility Wind Dir Wind Speed Gust Speed Precip Events Conditions
12:13 AM 48.0 °F - 48.0 °F 100% 30.24 in 10.0 mi East 6.9 mph - N/A   Overcast
12:53 AM 48.0 °F - 48.0 °F 100% 30.25 in 10.0 mi Variable 5.8 mph - N/A   Overcast
1:53 AM 48.0 °F - 48.0 °F 100% 30.24 in 10.0 mi East 5.8 mph - 0.00 in   Overcast
2:53 AM 46.9 °F - 46.9 °F 100% 30.21 in 10.0 mi East 8.1 mph - N/A   Overcast
4:53 AM 46.9 °F - 46.9 °F 100% 30.24 in 10.0 mi Calm Calm - 0.00 in Rain Light Rain
5:08 AM 46.9 °F - 46.0 °F 97% 30.23 in 10.0 mi Variable 3.5 mph - 0.00 in   Overcast
5:36 AM 46.9 °F - 46.0 °F 97% 30.23 in 9.0 mi Variable 4.6 mph - 0.00 in Rain Light Rain
5:44 AM 46.9 °F - 46.0 °F 97% 30.23 in 9.0 mi Variable 4.6 mph - 0.00 in Rain Light Rain
5:53 AM 46.9 °F - 46.0 °F 97% 30.23 in 10.0 mi Variable 3.5 mph - 0.00 in Rain Light Rain
6:02 AM 46.9 °F - 46.0 °F 97% 30.24 in 10.0 mi Calm Calm - 0.00 in Rain Light Rain
6:53 AM 46.0 °F 43.1 °F 46.0 °F 100% 30.22 in 10.0 mi Variable 5.8 mph - 0.00 in   Overcast
7:53 AM 46.0 °F 43.1 °F 45.0 °F 96% 30.21 in 10.0 mi Variable 5.8 mph - 0.00 in   Overcast
8:53 AM 46.9 °F - 46.0 °F 97% 30.25 in 9.0 mi North 3.5 mph - 0.00 in   Overcast
9:53 AM 46.9 °F - 46.0 °F 97% 30.25 in 9.0 mi Variable 3.5 mph - 0.01 in   Mostly Cloudy
10:53 AM 48.0 °F - 46.0 °F 93% 30.25 in 10.0 mi Variable 3.5 mph - N/A   Overcast
11:18 AM 48.0 °F - 46.0 °F 93% 30.23 in 10.0 mi Variable 3.5 mph - N/A   Overcast
11:53 AM 48.0 °F - 46.0 °F 93% 30.23 in 10.0 mi Variable 4.6 mph - 0.00 in   Overcast
12:48 PM 48.2 °F - 46.4 °F 93% 30.18 in 9.0 mi ENE 8.1 mph - 0.00 in Rain Light Rain
12:53 PM 48.0 °F - 46.9 °F 96% 30.18 in 10.0 mi East 8.1 mph - 0.00 in Rain Light Rain
1:00 PM 48.0 °F - 46.9 °F 96% 30.15 in 10.0 mi Variable 6.9 mph - 0.00 in Rain Light Rain
1:25 PM 48.0 °F - 48.0 °F 100% 30.18 in 7.0 mi Variable 4.6 mph - 0.01 in Rain Light Rain
1:53 PM 48.0 °F - 46.9 °F 96% 30.16 in 8.0 mi Variable 5.8 mph - 0.01 in   Overcast
2:00 PM 48.9 °F - 46.9 °F 93% 30.14 in 9.0 mi Variable 6.9 mph - N/A   Mostly Cloudy
2:12 PM 48.9 °F - 46.9 °F 93% 30.13 in 10.0 mi ENE 8.1 mph - N/A   Partly Cloudy
2:53 PM 50.0 °F - 48.0 °F 93% 30.13 in 10.0 mi ENE 3.5 mph - N/A   Clear
3:53 PM 50.0 °F - 46.9 °F 89% 30.12 in 10.0 mi Variable 3.5 mph - N/A   Partly Cloudy
4:53 PM 50.0 °F - 46.9 °F 89% 30.09 in 10.0 mi ENE 6.9 mph - N/A   Mostly Cloudy
5:53 PM 50.0 °F - 46.9 °F 89% 30.09 in 10.0 mi Variable 5.8 mph - N/A   Overcast
6:53 PM 50.0 °F - 46.0 °F 86% 30.09 in 10.0 mi ENE 9.2 mph 20.7 mph N/A   Overcast
7:53 PM 50.0 °F - 45.0 °F 83% 30.09 in 10.0 mi Variable 6.9 mph - N/A   Overcast
8:53 PM 50.0 °F - 45.0 °F 83% 30.06 in 10.0 mi ENE 9.2 mph 18.4 mph N/A   Overcast
9:53 PM 50.0 °F - 45.0 °F 83% 30.04 in 10.0 mi ENE 12.7 mph 18.4 mph N/A   Overcast
10:53 PM 50.0 °F - 45.0 °F 83% 30.04 in 10.0 mi Variable 6.9 mph - N/A   Overcast
11:53 PM 48.9 °F - 45.0 °F 86% 30.00 in 10.0 mi Variable 5.8 mph - N/A   Overcast